owner,sensor,date,latitude,longitude,vertical_datum,wind_speed,wind_to_direction,wind_speed_of_gust,qcFlag 
WAVCIS,ioos:station:WAVCIS:CSI09:1,2013-08-01T00:00:00Z,29.1015,-89.9782,0.0,4.71,246.0,,'11111222,11111222,99999999' 
WAVCIS,ioos:station:WAVCIS:CSI09:1,2013-08-01T01:00:00Z,29.1015,-89.9782,0.0,4.285,246.0,,'11111222,11111222,99999999' 
WAVCIS,ioos:station:WAVCIS:CSI09:1,2013-08-01T02:00:00Z,29.1015,-89.9782,0.0,3.326,228.0,,'11111222,11111222,99999999' 
WAVCIS,ioos:station:WAVCIS:CSI09:1,2013-08-01T03:00:00Z,29.1015,-89.9782,0.0,2.647,225.0,,'11111222,11111222,99999999' 
WAVCIS,ioos:station:WAVCIS:CSI09:1,2013-08-01T04:00:00Z,29.1015,-89.9782,0.0,2.713,221.0,,'11111222,11111222,99999999' 
WAVCIS,ioos:station:WAVCIS:CSI09:1,2013-08-01T05:00:00Z,29.1015,-89.9782,0.0,2.756,228.0,,'11111222,11111222,99999999' 
WAVCIS,ioos:station:WAVCIS:CSI09:1,2013-08-01T06:00:00Z,29.1015,-89.9782,0.0,3.162,248.0,,'11111222,11111222,99999999' 
WAVCIS,ioos:station:WAVCIS:CSI09:1,2013-08-01T07:00:00Z,29.1015,-89.9782,0.0,3.148,243.0,,'11111222,11111222,99999999' 
WAVCIS,ioos:station:WAVCIS:CSI09:1,2013-08-01T08:00:00Z,29.1015,-89.9782,0.0,3.938,230.0,,'11111222,11111222,99999999' 
WAVCIS,ioos:station:WAVCIS:CSI09:1,2013-08-01T09:00:00Z,29.1015,-89.9782,0.0,4.123,230.0,,'11111222,11111222,99999999' 
WAVCIS,ioos:station:WAVCIS:CSI09:1,2013-08-01T10:00:00Z,29.1015,-89.9782,0.0,5.429,256.0,,'11111222,11111222,99999999' 
WAVCIS,ioos:station:WAVCIS:CSI09:1,2013-08-01T11:00:00Z,29.1015,-89.9782,0.0,5.705,273.0,,'11111222,11111222,99999999' 
WAVCIS,ioos:station:WAVCIS:CSI09:1,2013-08-01T12:00:00Z,29.1015,-89.9782,0.0,5.599,268.0,,'11111222,11111222,99999999' 
WAVCIS,ioos:station:WAVCIS:CSI09:1,2013-08-01T13:00:00Z,29.1015,-89.9782,0.0,4.718,274.0,,'11111222,11111222,99999999' 
WAVCIS,ioos:station:WAVCIS:CSI09:1,2013-08-01T14:00:00Z,29.1015,-89.9782,0.0,5.218,282.0,,'11111222,11111222,99999999' 
WAVCIS,ioos:station:WAVCIS:CSI09:1,2013-08-01T15:00:00Z,29.1015,-89.9782,0.0,4.867,291.0,,'11111222,11111222,99999999' 
WAVCIS,ioos:station:WAVCIS:CSI09:1,2013-08-01T16:00:00Z,29.1015,-89.9782,0.0,5.423,298.0,,'11111222,11111222,99999999' 
WAVCIS,ioos:station:WAVCIS:CSI09:1,2013-08-01T17:00:00Z,29.1015,-89.9782,0.0,5.033,292.0,,'11111222,11111222,99999999' 
WAVCIS,ioos:station:WAVCIS:CSI09:1,2013-08-01T18:00:00Z,29.1015,-89.9782,0.0,3.48,289.0,,'11111222,11111222,99999999' 
WAVCIS,ioos:station:WAVCIS:CSI09:1,2013-08-01T19:00:00Z,29.1015,-89.9782,0.0,3.633,274.0,,'11111222,11111222,99999999' 
WAVCIS,ioos:station:WAVCIS:CSI09:1,2013-08-01T20:00:00Z,29.1015,-89.9782,0.0,3.012,249.0,,'11111222,11111222,99999999' 
WAVCIS,ioos:station:WAVCIS:CSI09:1,2013-08-01T21:00:00Z,29.1015,-89.9782,0.0,3.313,230.0,,'11111222,11111222,99999999' 
WAVCIS,ioos:station:WAVCIS:CSI09:1,2013-08-01T22:00:00Z,29.1015,-89.9782,0.0,6.103,301.0,,'11111222,11111222,99999999' 
WAVCIS,ioos:station:WAVCIS:CSI09:1,2013-08-01T23:00:00Z,29.1015,-89.9782,0.0,3.237,256.0,,'11111222,11111222,99999999' 
WAVCIS,ioos:station:WAVCIS:CSI09:1,2013-08-02T00:00:00Z,29.1015,-89.9782,0.0,1.231,230.0,,'11111222,11111222,99999999' 
WAVCIS,ioos:station:WAVCIS:CSI09:1,2013-08-02T01:00:00Z,29.1015,-89.9782,0.0,4.509,253.0,,'11111222,11111222,99999999' 
WAVCIS,ioos:station:WAVCIS:CSI09:1,2013-08-02T02:00:00Z,29.1015,-89.9782,0.0,3.952,257.0,,'11111222,11111222,99999999' 
WAVCIS,ioos:station:WAVCIS:CSI09:1,2013-08-02T03:00:00Z,29.1015,-89.9782,0.0,3.055,248.0,,'11111222,11111222,99999999' 
WAVCIS,ioos:station:WAVCIS:CSI09:1,2013-08-02T04:00:00Z,29.1015,-89.9782,0.0,3.786,239.0,,'11111222,11111222,99999999' 
WAVCIS,ioos:station:WAVCIS:CSI09:1,2013-08-02T05:00:00Z,29.1015,-89.9782,0.0,4.726,250.0,,'11111222,11111222,99999999' 
WAVCIS,ioos:station:WAVCIS:CSI09:1,2013-08-02T06:00:00Z,29.1015,-89.9782,0.0,5.36,252.0,,'11111222,11111222,99999999' 
WAVCIS,ioos:station:WAVCIS:CSI09:1,2013-08-02T07:00:00Z,29.1015,-89.9782,0.0,4.961,271.0,,'11111222,11111222,99999999' 
WAVCIS,ioos:station:WAVCIS:CSI09:1,2013-08-02T08:00:00Z,29.1015,-89.9782,0.0,6.362,268.0,,'11111222,11111222,99999999' 
WAVCIS,ioos:station:WAVCIS:CSI09:1,2013-08-02T09:00:00Z,29.1015,-89.9782,0.0,1.743,207.0,,'11111222,11111222,99999999' 
WAVCIS,ioos:station:WAVCIS:CSI09:1,2013-08-02T10:00:00Z,29.1015,-89.9782,0.0,5.764,258.0,,'11111222,11111222,99999999' 
WAVCIS,ioos:station:WAVCIS:CSI09:1,2013-08-02T11:00:00Z,29.1015,-89.9782,0.0,4.616,272.0,,'11111222,11111222,99999999' 
WAVCIS,ioos:station:WAVCIS:CSI09:1,2013-08-02T12:00:00Z,29.1015,-89.9782,0.0,3.312,294.0,,'11111222,11111222,99999999' 
WAVCIS,ioos:station:WAVCIS:CSI09:1,2013-08-02T13:00:00Z,29.1015,-89.9782,0.0,3.027,302.0,,'11111222,11111222,99999999' 
WAVCIS,ioos:station:WAVCIS:CSI09:1,2013-08-02T14:00:00Z,29.1015,-89.9782,0.0,3.649,283.0,,'11111222,11111222,99999999' 
WAVCIS,ioos:station:WAVCIS:CSI09:1,2013-08-02T15:00:00Z,29.1015,-89.9782,0.0,2.779,282.0,,'11111222,11111222,99999999' 
WAVCIS,ioos:station:WAVCIS:CSI09:1,2013-08-02T16:00:00Z,29.1015,-89.9782,0.0,3.541,292.0,,'11111222,11111222,99999999' 
WAVCIS,ioos:station:WAVCIS:CSI09:1,2013-08-02T17:00:00Z,29.1015,-89.9782,0.0,2.797,317.0,,'11111222,11111222,99999999' 
WAVCIS,ioos:station:WAVCIS:CSI09:1,2013-08-02T18:00:00Z,29.1015,-89.9782,0.0,0.875,302.0,,'11111222,11111222,99999999' 
WAVCIS,ioos:station:WAVCIS:CSI09:1,2013-08-02T19:00:00Z,29.1015,-89.9782,0.0,3.277,242.0,,'11111222,11111222,99999999' 
WAVCIS,ioos:station:WAVCIS:CSI09:1,2013-08-02T20:00:00Z,29.1015,-89.9782,0.0,1.052,220.0,,'11111222,11111222,99999999' 
WAVCIS,ioos:station:WAVCIS:CSI09:1,2013-08-02T21:00:00Z,29.1015,-89.9782,0.0,1.415,171.0,,'11111222,11111222,99999999' 
WAVCIS,ioos:station:WAVCIS:CSI09:1,2013-08-02T22:00:00Z,29.1015,-89.9782,0.0,1.145,200.0,,'11111222,11111222,99999999' 
WAVCIS,ioos:station:WAVCIS:CSI09:1,2013-08-02T23:00:00Z,29.1015,-89.9782,0.0,0.683,189.0,,'11111222,11111222,99999999' 
WAVCIS,ioos:station:WAVCIS:CSI09:1,2013-08-03T00:00:00Z,29.1015,-89.9782,0.0,0.891,205.0,,'11111222,11111222,99999999' 
WAVCIS,ioos:station:WAVCIS:CSI09:1,2013-08-03T01:00:00Z,29.1015,-89.9782,0.0,1.508,212.0,,'11111222,11111222,99999999' 
WAVCIS,ioos:station:WAVCIS:CSI09:1,2013-08-03T02:00:00Z,29.1015,-89.9782,0.0,2.221,226.0,,'11111222,11111222,99999999' 
WAVCIS,ioos:station:WAVCIS:CSI09:1,2013-08-03T03:00:00Z,29.1015,-89.9782,0.0,2.01,216.0,,'11111222,11111222,99999999' 
WAVCIS,ioos:station:WAVCIS:CSI09:1,2013-08-03T04:00:00Z,29.1015,-89.9782,0.0,1.047,205.0,,'11111222,11111222,99999999' 
WAVCIS,ioos:station:WAVCIS:CSI09:1,2013-08-03T05:00:00Z,29.1015,-89.9782,0.0,1.099,196.0,,'11111222,11111222,99999999' 
WAVCIS,ioos:station:WAVCIS:CSI09:1,2013-08-03T06:00:00Z,29.1015,-89.9782,0.0,1.688,201.0,,'11111222,11111222,99999999' 
WAVCIS,ioos:station:WAVCIS:CSI09:1,2013-08-03T07:00:00Z,29.1015,-89.9782,0.0,1.829,206.0,,'11111222,11111222,99999999' 
WAVCIS,ioos:station:WAVCIS:CSI09:1,2013-08-03T08:00:00Z,29.1015,-89.9782,0.0,2.483,230.0,,'11111222,11111222,99999999' 
WAVCIS,ioos:station:WAVCIS:CSI09:1,2013-08-03T09:00:00Z,29.1015,-89.9782,0.0,2.687,262.0,,'11111222,11111222,99999999' 
WAVCIS,ioos:station:WAVCIS:CSI09:1,2013-08-03T10:00:00Z,29.1015,-89.9782,0.0,4.154,240.0,,'11111222,11111222,99999999' 
WAVCIS,ioos:station:WAVCIS:CSI09:1,2013-08-03T11:00:00Z,29.1015,-89.9782,0.0,3.312,235.0,,'11111222,11111222,99999999' 
WAVCIS,ioos:station:WAVCIS:CSI09:1,2013-08-03T12:00:00Z,29.1015,-89.9782,0.0,4.377,255.0,,'11111222,11111222,99999999' 
WAVCIS,ioos:station:WAVCIS:CSI09:1,2013-08-03T13:00:00Z,29.1015,-89.9782,0.0,4.593,256.0,,'11111222,11111222,99999999' 
WAVCIS,ioos:station:WAVCIS:CSI09:1,2013-08-03T14:00:00Z,29.1015,-89.9782,0.0,3.232,253.0,,'11111222,11111222,99999999' 
WAVCIS,ioos:station:WAVCIS:CSI09:1,2013-08-03T15:00:00Z,29.1015,-89.9782,0.0,3.67,250.0,,'11111222,11111222,99999999' 
WAVCIS,ioos:station:WAVCIS:CSI09:1,2013-08-03T16:00:00Z,29.1015,-89.9782,0.0,4.134,245.0,,'11111222,11111222,99999999' 
WAVCIS,ioos:station:WAVCIS:CSI09:1,2013-08-03T17:00:00Z,29.1015,-89.9782,0.0,2.949,277.0,,'11111222,11111222,99999999' 
WAVCIS,ioos:station:WAVCIS:CSI09:1,2013-08-03T18:00:00Z,29.1015,-89.9782,0.0,3.106,270.0,,'11111222,11111222,99999999' 
WAVCIS,ioos:station:WAVCIS:CSI09:1,2013-08-03T19:00:00Z,29.1015,-89.9782,0.0,0.9,65.0,,'11111222,11111222,99999999' 
WAVCIS,ioos:station:WAVCIS:CSI09:1,2013-08-03T20:00:00Z,29.1015,-89.9782,0.0,0.369,168.0,,'11111222,11111222,99999999' 
WAVCIS,ioos:station:WAVCIS:CSI09:1,2013-08-03T21:00:00Z,29.1015,-89.9782,0.0,3.569,244.0,,'11111222,11111222,99999999' 
WAVCIS,ioos:station:WAVCIS:CSI09:1,2013-08-03T22:00:00Z,29.1015,-89.9782,0.0,2.866,231.0,,'11111222,11111222,99999999' 
WAVCIS,ioos:station:WAVCIS:CSI09:1,2013-08-03T23:00:00Z,29.1015,-89.9782,0.0,2.816,234.0,,'11111222,11111222,99999999' 
WAVCIS,ioos:station:WAVCIS:CSI09:1,2013-08-04T00:00:00Z,29.1015,-89.9782,0.0,2.477,231.0,,'11111222,11111222,99999999' 
WAVCIS,ioos:station:WAVCIS:CSI09:1,2013-08-04T01:00:00Z,29.1015,-89.9782,0.0,2.087,229.0,,'11111222,11111222,99999999' 
WAVCIS,ioos:station:WAVCIS:CSI09:1,2013-08-04T02:00:00Z,29.1015,-89.9782,0.0,2.348,213.0,,'11111222,11111222,99999999' 
WAVCIS,ioos:station:WAVCIS:CSI09:1,2013-08-04T03:00:00Z,29.1015,-89.9782,0.0,2.694,216.0,,'11111222,11111222,99999999' 
WAVCIS,ioos:station:WAVCIS:CSI09:1,2013-08-04T04:00:00Z,29.1015,-89.9782,0.0,3.307,224.0,,'11111222,11111222,99999999' 
WAVCIS,ioos:station:WAVCIS:CSI09:1,2013-08-04T05:00:00Z,29.1015,-89.9782,0.0,3.121,215.0,,'11111222,11111222,99999999' 
WAVCIS,ioos:station:WAVCIS:CSI09:1,2013-08-04T06:00:00Z,29.1015,-89.9782,0.0,3.279,216.0,,'11111222,11111222,99999999' 
WAVCIS,ioos:station:WAVCIS:CSI09:1,2013-08-04T07:00:00Z,29.1015,-89.9782,0.0,3.471,230.0,,'11111222,11111222,99999999' 
WAVCIS,ioos:station:WAVCIS:CSI09:1,2013-08-04T08:00:00Z,29.1015,-89.9782,0.0,3.968,231.0,,'11111222,11111222,99999999' 
WAVCIS,ioos:station:WAVCIS:CSI09:1,2013-08-04T09:00:00Z,29.1015,-89.9782,0.0,4.625,249.0,,'11111222,11111222,99999999' 
WAVCIS,ioos:station:WAVCIS:CSI09:1,2013-08-04T10:00:00Z,29.1015,-89.9782,0.0,4.487,245.0,,'11111222,11111222,99999999' 
WAVCIS,ioos:station:WAVCIS:CSI09:1,2013-08-04T11:00:00Z,29.1015,-89.9782,0.0,4.886,269.0,,'11111222,11111222,99999999' 
WAVCIS,ioos:station:WAVCIS:CSI09:1,2013-08-04T12:00:00Z,29.1015,-89.9782,0.0,4.848,284.0,,'11111222,11111222,99999999' 
WAVCIS,ioos:station:WAVCIS:CSI09:1,2013-08-04T13:00:00Z,29.1015,-89.9782,0.0,3.535,293.0,,'11111222,11111222,99999999' 
WAVCIS,ioos:station:WAVCIS:CSI09:1,2013-08-04T14:00:00Z,29.1015,-89.9782,0.0,4.25,349.0,,'11111222,11111222,99999999' 
WAVCIS,ioos:station:WAVCIS:CSI09:1,2013-08-04T15:00:00Z,29.1015,-89.9782,0.0,4.54,334.0,,'11111222,11111222,99999999' 
WAVCIS,ioos:station:WAVCIS:CSI09:1,2013-08-04T16:00:00Z,29.1015,-89.9782,0.0,3.123,339.0,,'11111222,11111222,99999999' 
WAVCIS,ioos:station:WAVCIS:CSI09:1,2013-08-04T17:00:00Z,29.1015,-89.9782,0.0,2.359,343.0,,'11111222,11111222,99999999' 
WAVCIS,ioos:station:WAVCIS:CSI09:1,2013-08-04T18:00:00Z,29.1015,-89.9782,0.0,1.138,307.0,,'11111222,11111222,99999999' 
WAVCIS,ioos:station:WAVCIS:CSI09:1,2013-08-04T19:00:00Z,29.1015,-89.9782,0.0,1.809,251.0,,'11111222,11111222,99999999' 
WAVCIS,ioos:station:WAVCIS:CSI09:1,2013-08-04T20:00:00Z,29.1015,-89.9782,0.0,3.012,227.0,,'11111222,11111222,99999999' 
WAVCIS,ioos:station:WAVCIS:CSI09:1,2013-08-04T21:00:00Z,29.1015,-89.9782,0.0,4.583,285.0,,'11111222,11111222,99999999' 
WAVCIS,ioos:station:WAVCIS:CSI09:1,2013-08-04T22:00:00Z,29.1015,-89.9782,0.0,2.247,268.0,,'11111222,11111222,99999999' 
WAVCIS,ioos:station:WAVCIS:CSI09:1,2013-08-04T23:00:00Z,29.1015,-89.9782,0.0,5.164,256.0,,'11111222,11111222,99999999' 
WAVCIS,ioos:station:WAVCIS:CSI09:1,2013-08-05T00:00:00Z,29.1015,-89.9782,0.0,5.27,255.0,,'11111222,11111222,99999999' 
WAVCIS,ioos:station:WAVCIS:CSI09:1,2013-08-05T01:00:00Z,29.1015,-89.9782,0.0,5.266,251.0,,'11111222,11111222,99999999' 
WAVCIS,ioos:station:WAVCIS:CSI09:1,2013-08-05T02:00:00Z,29.1015,-89.9782,0.0,4.706,253.0,,'11111222,11111222,99999999' 
WAVCIS,ioos:station:WAVCIS:CSI09:1,2013-08-05T03:00:00Z,29.1015,-89.9782,0.0,4.436,258.0,,'11111222,11111222,99999999' 
WAVCIS,ioos:station:WAVCIS:CSI09:1,2013-08-05T04:00:00Z,29.1015,-89.9782,0.0,4.338,253.0,,'11111222,11111222,99999999' 
WAVCIS,ioos:station:WAVCIS:CSI09:1,2013-08-05T05:00:00Z,29.1015,-89.9782,0.0,4.407,258.0,,'11111222,11111222,99999999' 
WAVCIS,ioos:station:WAVCIS:CSI09:1,2013-08-05T06:00:00Z,29.1015,-89.9782,0.0,4.794,261.0,,'11111222,11111222,99999999' 
WAVCIS,ioos:station:WAVCIS:CSI09:1,2013-08-05T07:00:00Z,29.1015,-89.9782,0.0,4.827,264.0,,'11111222,11111222,99999999' 
WAVCIS,ioos:station:WAVCIS:CSI09:1,2013-08-05T08:00:00Z,29.1015,-89.9782,0.0,5.508,259.0,,'11111222,11111222,99999999' 
WAVCIS,ioos:station:WAVCIS:CSI09:1,2013-08-05T09:00:00Z,29.1015,-89.9782,0.0,5.429,272.0,,'11111222,11111222,99999999' 
WAVCIS,ioos:station:WAVCIS:CSI09:1,2013-08-05T10:00:00Z,29.1015,-89.9782,0.0,4.729,281.0,,'11111222,11111222,99999999' 
WAVCIS,ioos:station:WAVCIS:CSI09:1,2013-08-05T11:00:00Z,29.1015,-89.9782,0.0,6.351,321.0,,'11111222,11111222,99999999' 
WAVCIS,ioos:station:WAVCIS:CSI09:1,2013-08-05T12:00:00Z,29.1015,-89.9782,0.0,6.979,322.0,,'11111222,11111222,99999999' 
WAVCIS,ioos:station:WAVCIS:CSI09:1,2013-08-05T13:00:00Z,29.1015,-89.9782,0.0,6.409,323.0,,'11111222,11111222,99999999' 
WAVCIS,ioos:station:WAVCIS:CSI09:1,2013-08-05T14:00:00Z,29.1015,-89.9782,0.0,6.316,327.0,,'11111222,11111222,99999999' 
WAVCIS,ioos:station:WAVCIS:CSI09:1,2013-08-05T15:00:00Z,29.1015,-89.9782,0.0,5.801,328.0,,'11111222,11111222,99999999' 
WAVCIS,ioos:station:WAVCIS:CSI09:1,2013-08-05T16:00:00Z,29.1015,-89.9782,0.0,3.597,328.0,,'11111222,11111222,99999999' 
WAVCIS,ioos:station:WAVCIS:CSI09:1,2013-08-05T17:00:00Z,29.1015,-89.9782,0.0,1.578,316.0,,'11111222,11111222,99999999' 
WAVCIS,ioos:station:WAVCIS:CSI09:1,2013-08-05T18:00:00Z,29.1015,-89.9782,0.0,3.134,254.0,,'11111222,11111222,99999999' 
WAVCIS,ioos:station:WAVCIS:CSI09:1,2013-08-05T19:00:00Z,29.1015,-89.9782,0.0,6.882,258.0,,'11111222,11111222,99999999' 
WAVCIS,ioos:station:WAVCIS:CSI09:1,2013-08-05T20:00:00Z,29.1015,-89.9782,0.0,6.317,237.0,,'11111222,11111222,99999999' 
WAVCIS,ioos:station:WAVCIS:CSI09:1,2013-08-05T21:00:00Z,29.1015,-89.9782,0.0,6.583,247.0,,'11111222,11111222,99999999' 
WAVCIS,ioos:station:WAVCIS:CSI09:1,2013-08-05T22:00:00Z,29.1015,-89.9782,0.0,8.31,251.0,,'11111222,11111222,99999999' 
WAVCIS,ioos:station:WAVCIS:CSI09:1,2013-08-05T23:00:00Z,29.1015,-89.9782,0.0,7.87,252.0,,'11111222,11111222,99999999' 
WAVCIS,ioos:station:WAVCIS:CSI09:1,2013-08-06T00:00:00Z,29.1015,-89.9782,0.0,6.913,258.0,,'11111222,11111222,99999999' 
WAVCIS,ioos:station:WAVCIS:CSI09:1,2013-08-06T01:00:00Z,29.1015,-89.9782,0.0,7.11,259.0,,'11111222,11111222,99999999' 
WAVCIS,ioos:station:WAVCIS:CSI09:1,2013-08-06T02:00:00Z,29.1015,-89.9782,0.0,6.381,254.0,,'11111222,11111222,99999999' 
WAVCIS,ioos:station:WAVCIS:CSI09:1,2013-08-06T03:00:00Z,29.1015,-89.9782,0.0,6.887,258.0,,'11111222,11111222,99999999' 
WAVCIS,ioos:station:WAVCIS:CSI09:1,2013-08-06T04:00:00Z,29.1015,-89.9782,0.0,6.636,262.0,,'11111222,11111222,99999999' 
WAVCIS,ioos:station:WAVCIS:CSI09:1,2013-08-06T05:00:00Z,29.1015,-89.9782,0.0,4.842,266.0,,'11111222,11111222,99999999' 
WAVCIS,ioos:station:WAVCIS:CSI09:1,2013-08-06T06:00:00Z,29.1015,-89.9782,0.0,6.086,253.0,,'11111222,11111222,99999999' 
WAVCIS,ioos:station:WAVCIS:CSI09:1,2013-08-06T07:00:00Z,29.1015,-89.9782,0.0,6.319,257.0,,'11111222,11111222,99999999' 
WAVCIS,ioos:station:WAVCIS:CSI09:1,2013-08-06T08:00:00Z,29.1015,-89.9782,0.0,5.48,264.0,,'11111222,11111222,99999999' 
WAVCIS,ioos:station:WAVCIS:CSI09:1,2013-08-06T09:00:00Z,29.1015,-89.9782,0.0,5.917,270.0,,'11111222,11111222,99999999' 
WAVCIS,ioos:station:WAVCIS:CSI09:1,2013-08-06T10:00:00Z,29.1015,-89.9782,0.0,6.566,274.0,,'11111222,11111222,99999999' 
WAVCIS,ioos:station:WAVCIS:CSI09:1,2013-08-06T11:00:00Z,29.1015,-89.9782,0.0,7.08,278.0,,'11111222,11111222,99999999' 
WAVCIS,ioos:station:WAVCIS:CSI09:1,2013-08-06T12:00:00Z,29.1015,-89.9782,0.0,5.758,283.0,,'11111222,11111222,99999999' 
WAVCIS,ioos:station:WAVCIS:CSI09:1,2013-08-06T13:00:00Z,29.1015,-89.9782,0.0,5.357,308.0,,'11111222,11111222,99999999' 
WAVCIS,ioos:station:WAVCIS:CSI09:1,2013-08-06T14:00:00Z,29.1015,-89.9782,0.0,5.894,308.0,,'11111222,11111222,99999999' 
WAVCIS,ioos:station:WAVCIS:CSI09:1,2013-08-06T15:00:00Z,29.1015,-89.9782,0.0,4.564,314.0,,'11111222,11111222,99999999' 
WAVCIS,ioos:station:WAVCIS:CSI09:1,2013-08-06T16:00:00Z,29.1015,-89.9782,0.0,4.186,341.0,,'11111222,11111222,99999999' 
WAVCIS,ioos:station:WAVCIS:CSI09:1,2013-08-06T17:00:00Z,29.1015,-89.9782,0.0,2.288,331.0,,'11111222,11111222,99999999' 
WAVCIS,ioos:station:WAVCIS:CSI09:1,2013-08-06T18:00:00Z,29.1015,-89.9782,0.0,1.548,283.0,,'11111222,11111222,99999999' 
WAVCIS,ioos:station:WAVCIS:CSI09:1,2013-08-06T19:00:00Z,29.1015,-89.9782,0.0,3.271,241.0,,'11111222,11111222,99999999' 
WAVCIS,ioos:station:WAVCIS:CSI09:1,2013-08-06T20:00:00Z,29.1015,-89.9782,0.0,4.669,236.0,,'11111222,11111222,99999999' 
WAVCIS,ioos:station:WAVCIS:CSI09:1,2013-08-06T21:00:00Z,29.1015,-89.9782,0.0,5.817,242.0,,'11111222,11111222,99999999' 
WAVCIS,ioos:station:WAVCIS:CSI09:1,2013-08-06T22:00:00Z,29.1015,-89.9782,0.0,6.38,247.0,,'11111222,11111222,99999999' 
WAVCIS,ioos:station:WAVCIS:CSI09:1,2013-08-06T23:00:00Z,29.1015,-89.9782,0.0,7.64,251.0,,'11111222,11111222,99999999' 
WAVCIS,ioos:station:WAVCIS:CSI09:1,2013-08-07T00:00:00Z,29.1015,-89.9782,0.0,7.09,259.0,,'11111222,11111222,99999999' 
WAVCIS,ioos:station:WAVCIS:CSI09:1,2013-08-07T01:00:00Z,29.1015,-89.9782,0.0,6.337,248.0,,'11111222,11111222,99999999' 
WAVCIS,ioos:station:WAVCIS:CSI09:1,2013-08-07T02:00:00Z,29.1015,-89.9782,0.0,6.924,257.0,,'11111222,11111222,99999999' 
WAVCIS,ioos:station:WAVCIS:CSI09:1,2013-08-07T03:00:00Z,29.1015,-89.9782,0.0,7.31,253.0,,'11111222,11111222,99999999' 
WAVCIS,ioos:station:WAVCIS:CSI09:1,2013-08-07T04:00:00Z,29.1015,-89.9782,0.0,5.426,259.0,,'11111222,11111222,99999999' 
WAVCIS,ioos:station:WAVCIS:CSI09:1,2013-08-07T05:00:00Z,29.1015,-89.9782,0.0,4.499,265.0,,'11111222,11111222,99999999' 
WAVCIS,ioos:station:WAVCIS:CSI09:1,2013-08-07T06:00:00Z,29.1015,-89.9782,0.0,4.784,265.0,,'11111222,11111222,99999999' 
WAVCIS,ioos:station:WAVCIS:CSI09:1,2013-08-07T07:00:00Z,29.1015,-89.9782,0.0,5.219,266.0,,'11111222,11111222,99999999' 
WAVCIS,ioos:station:WAVCIS:CSI09:1,2013-08-07T08:00:00Z,29.1015,-89.9782,0.0,7.15,264.0,,'11111222,11111222,99999999' 
WAVCIS,ioos:station:WAVCIS:CSI09:1,2013-08-07T09:00:00Z,29.1015,-89.9782,0.0,7.33,268.0,,'11111222,11111222,99999999' 
WAVCIS,ioos:station:WAVCIS:CSI09:1,2013-08-07T10:00:00Z,29.1015,-89.9782,0.0,5.087,289.0,,'11111222,11111222,99999999' 
WAVCIS,ioos:station:WAVCIS:CSI09:1,2013-08-07T11:00:00Z,29.1015,-89.9782,0.0,3.516,279.0,,'11111222,11111222,99999999' 
WAVCIS,ioos:station:WAVCIS:CSI09:1,2013-08-07T12:00:00Z,29.1015,-89.9782,0.0,3.719,291.0,,'11111222,11111222,99999999' 
WAVCIS,ioos:station:WAVCIS:CSI09:1,2013-08-07T13:00:00Z,29.1015,-89.9782,0.0,3.889,304.0,,'11111222,11111222,99999999' 
WAVCIS,ioos:station:WAVCIS:CSI09:1,2013-08-07T14:00:00Z,29.1015,-89.9782,0.0,3.481,339.0,,'11111222,11111222,99999999' 
WAVCIS,ioos:station:WAVCIS:CSI09:1,2013-08-07T15:00:00Z,29.1015,-89.9782,0.0,3.277,347.0,,'11111222,11111222,99999999' 
WAVCIS,ioos:station:WAVCIS:CSI09:1,2013-08-07T16:00:00Z,29.1015,-89.9782,0.0,3.349,17.0,,'11111222,11111222,99999999' 
WAVCIS,ioos:station:WAVCIS:CSI09:1,2013-08-07T17:00:00Z,29.1015,-89.9782,0.0,2.983,27.0,,'11111222,11111222,99999999' 
WAVCIS,ioos:station:WAVCIS:CSI09:1,2013-08-07T18:00:00Z,29.1015,-89.9782,0.0,1.653,53.0,,'11111222,11111222,99999999' 
WAVCIS,ioos:station:WAVCIS:CSI09:1,2013-08-07T19:00:00Z,29.1015,-89.9782,0.0,1.291,134.0,,'11111222,11111222,99999999' 
WAVCIS,ioos:station:WAVCIS:CSI09:1,2013-08-07T20:00:00Z,29.1015,-89.9782,0.0,1.118,217.0,,'11111222,11111222,99999999' 
WAVCIS,ioos:station:WAVCIS:CSI09:1,2013-08-07T21:00:00Z,29.1015,-89.9782,0.0,2.072,256.0,,'11111222,11111222,99999999' 
WAVCIS,ioos:station:WAVCIS:CSI09:1,2013-08-07T22:00:00Z,29.1015,-89.9782,0.0,1.945,245.0,,'11111222,11111222,99999999' 
WAVCIS,ioos:station:WAVCIS:CSI09:1,2013-08-07T23:00:00Z,29.1015,-89.9782,0.0,2.504,235.0,,'11111222,11111222,99999999' 
WAVCIS,ioos:station:WAVCIS:CSI09:1,2013-08-08T00:00:00Z,29.1015,-89.9782,0.0,3.436,250.0,,'11111222,11111222,99999999' 
WAVCIS,ioos:station:WAVCIS:CSI09:1,2013-08-08T01:00:00Z,29.1015,-89.9782,0.0,2.179,246.0,,'11111222,11111222,99999999' 
WAVCIS,ioos:station:WAVCIS:CSI09:1,2013-08-08T02:00:00Z,29.1015,-89.9782,0.0,1.348,210.0,,'11111222,11111222,99999999' 
WAVCIS,ioos:station:WAVCIS:CSI09:1,2013-08-08T03:00:00Z,29.1015,-89.9782,0.0,1.553,182.0,,'11111222,11111222,99999999' 
WAVCIS,ioos:station:WAVCIS:CSI09:1,2013-08-08T04:00:00Z,29.1015,-89.9782,0.0,0.845,204.0,,'11111222,11111222,99999999' 
WAVCIS,ioos:station:WAVCIS:CSI09:1,2013-08-08T05:00:00Z,29.1015,-89.9782,0.0,0.968,218.0,,'11111222,11111222,99999999' 
WAVCIS,ioos:station:WAVCIS:CSI09:1,2013-08-08T06:00:00Z,29.1015,-89.9782,0.0,1.448,190.0,,'11111222,11111222,99999999' 
WAVCIS,ioos:station:WAVCIS:CSI09:1,2013-08-08T07:00:00Z,29.1015,-89.9782,0.0,0.994,248.0,,'11111222,11111222,99999999' 
WAVCIS,ioos:station:WAVCIS:CSI09:1,2013-08-08T08:00:00Z,29.1015,-89.9782,0.0,1.322,271.0,,'11111222,11111222,99999999' 
WAVCIS,ioos:station:WAVCIS:CSI09:1,2013-08-08T09:00:00Z,29.1015,-89.9782,0.0,1.156,308.0,,'11111222,11111222,99999999' 
WAVCIS,ioos:station:WAVCIS:CSI09:1,2013-08-08T10:00:00Z,29.1015,-89.9782,0.0,2.071,316.0,,'11111222,11111222,99999999' 
WAVCIS,ioos:station:WAVCIS:CSI09:1,2013-08-08T11:00:00Z,29.1015,-89.9782,0.0,1.51,349.0,,'11111222,11111222,99999999' 
WAVCIS,ioos:station:WAVCIS:CSI09:1,2013-08-08T12:00:00Z,29.1015,-89.9782,0.0,3.486,349.0,,'11111222,11111222,99999999' 
WAVCIS,ioos:station:WAVCIS:CSI09:1,2013-08-08T13:00:00Z,29.1015,-89.9782,0.0,5.188,21.0,,'11111222,11111222,99999999' 
WAVCIS,ioos:station:WAVCIS:CSI09:1,2013-08-08T14:00:00Z,29.1015,-89.9782,0.0,5.052,43.0,,'11111222,11111222,99999999' 
WAVCIS,ioos:station:WAVCIS:CSI09:1,2013-08-08T15:00:00Z,29.1015,-89.9782,0.0,4.629,38.0,,'11111222,11111222,99999999' 
WAVCIS,ioos:station:WAVCIS:CSI09:1,2013-08-08T16:00:00Z,29.1015,-89.9782,0.0,2.755,31.0,,'11111222,11111222,99999999' 
WAVCIS,ioos:station:WAVCIS:CSI09:1,2013-08-08T17:00:00Z,29.1015,-89.9782,0.0,1.214,181.0,,'11111222,11111222,99999999' 
WAVCIS,ioos:station:WAVCIS:CSI09:1,2013-08-08T18:00:00Z,29.1015,-89.9782,0.0,2.115,90.0,,'11111222,11111222,99999999' 
WAVCIS,ioos:station:WAVCIS:CSI09:1,2013-08-08T19:00:00Z,29.1015,-89.9782,0.0,1.888,83.0,,'11111222,11111222,99999999' 
WAVCIS,ioos:station:WAVCIS:CSI09:1,2013-08-08T20:00:00Z,29.1015,-89.9782,0.0,1.836,115.0,,'11111222,11111222,99999999' 
WAVCIS,ioos:station:WAVCIS:CSI09:1,2013-08-08T21:00:00Z,29.1015,-89.9782,0.0,1.634,113.0,,'11111222,11111222,99999999' 
WAVCIS,ioos:station:WAVCIS:CSI09:1,2013-08-08T22:00:00Z,29.1015,-89.9782,0.0,1.997,118.0,,'11111222,11111222,99999999' 
WAVCIS,ioos:station:WAVCIS:CSI09:1,2013-08-08T23:00:00Z,29.1015,-89.9782,0.0,2.793,124.0,,'11111222,11111222,99999999' 
WAVCIS,ioos:station:WAVCIS:CSI09:1,2013-08-09T00:00:00Z,29.1015,-89.9782,0.0,3.143,129.0,,'11111222,11111222,99999999' 
WAVCIS,ioos:station:WAVCIS:CSI09:1,2013-08-09T01:00:00Z,29.1015,-89.9782,0.0,3.305,121.0,,'11111222,11111222,99999999' 
WAVCIS,ioos:station:WAVCIS:CSI09:1,2013-08-09T02:00:00Z,29.1015,-89.9782,0.0,3.705,111.0,,'11111222,11111222,99999999' 
WAVCIS,ioos:station:WAVCIS:CSI09:1,2013-08-09T03:00:00Z,29.1015,-89.9782,0.0,3.911,102.0,,'11111222,11111222,99999999' 
WAVCIS,ioos:station:WAVCIS:CSI09:1,2013-08-09T04:00:00Z,29.1015,-89.9782,0.0,4.052,99.0,,'11111222,11111222,99999999' 
WAVCIS,ioos:station:WAVCIS:CSI09:1,2013-08-09T05:00:00Z,29.1015,-89.9782,0.0,4.775,106.0,,'11111222,11111222,99999999' 
WAVCIS,ioos:station:WAVCIS:CSI09:1,2013-08-09T06:00:00Z,29.1015,-89.9782,0.0,4.433,129.0,,'11111222,11111222,99999999' 